Notices

What's New in latest Release from April 7th, 2021:

- Updated Glossary, including Speed of Maximum Gust, and Total Hourly Precipitation

- Updated national and regional climate services offices contacts and prices information

- Addition of station inventory lists for 1981-2010, 1971-2000, and 1961-1990 Normals.

If you haven't already, please take our survey and provide feedback about our website: https://eccc.sondage-survey.ca/f/LanguageSelection.aspx?s=442ca660-fcf1-47c0-95a9-59707d6fd709

Hourly Data Report for January 04, 2021

STE-ANNE-DE-BELLEVUE 1
QUEBEC
Current Station Operator: ECCC - MSC

45°25'38.000" N
73°55'45.000" W
39.00 m
702FHL8
71377
WVQ

Download Data

Hourly Data (January 2021)
Hourly Data Report for January 4, 2021
TIME
LST
Temp Definition
°C
Dew Point Definition
°C
Rel Hum Definition
%
Precip. Amount Definition
mm

Wind Dir Definition
10's deg

Wind Spd Definition
km/h
Visibility Definition
km
Stn Press Definition
kPa
Hmdx Definition


Wind Chill Definition


Weather Definition


00:00 -3.8 -5.7 87 0.0 2 11   101.13   -8 LegendNANA
01:00 -3.4 -5.4 86 0.0 3 8   101.11   -7 LegendNANA
02:00 -3.3 -5.3 86 0.0 3 9   101.16   -7 LegendNANA
03:00 -3.3 -5.3 86 0.0 3 9   101.19   -7 LegendNANA
04:00 -3.5 -4.7 92 0.0 3 7   101.16   -6 LegendNANA
05:00 -3.5 -4.8 91 0.0 2 6   101.17   -6 LegendNANA
06:00 -3.5 -5.2 88 0.0 3 8   101.19   -7 LegendNANA
07:00 -3.2 -4.6 90 0.0 2 5   101.23   -5 LegendNANA
08:00 -3.2 -4.7 89 0.0 2 7   101.32   -6 LegendNANA
09:00 -3.1 -4.9 87 0.0 2 8   101.35   -6 LegendNANA
10:00 -2.7 -4.9 85 0.0 4 8   101.37   -6 LegendNANA
11:00 -2.2 -4.7 83 0.0 3 7   101.33   -5 LegendNANA
12:00 -1.8 -4.4 82 0.0 5 5   101.25   -4 LegendNANA
13:00 -1.5 -3.8 85 0.0 4 4   101.21   -3 LegendNANA
14:00 -1.3 -3.6 85 0.0 36 6   101.18   -4 LegendNANA
15:00 -1.3 -2.9 88 0.0 3 5   101.20   -3 LegendNANA
16:00 -1.2 -3.0 87 0.0 2 7   101.21   -4 LegendNANA
17:00 -1.4 -3.3 87 0.0 3 6   101.24   -4 LegendNANA
18:00 -1.5 -3.3 88 0.0 3 6   101.26   -4 LegendNANA
19:00 -2.1 -3.1 92 0.0 3 6   101.25   -4 LegendNANA
20:00 -2.1 -3.2 92 0.0 5 8   101.24   -5 LegendNANA
21:00 -2.0 -3.2 92 0.0 4 6   101.21   -4 LegendNANA
22:00 -2.2 -3.2 93 0.0 2 6   101.20   -5 LegendNANA
23:00 -2.3 -3.3 93 0.0 2 8   101.18   -5 LegendNANA

Notes on Data Quality.

Legend

  • E = Estimated
  • M = Missing
  • NA = Not Available*
  • [empty] = Indicates an unobserved value
Date modified: